Regional Weather Roundup
Issued by NWS Green Bay, WI

Home | Current Version | Previous Version | Text Only | Print | Product List | Glossary On
Versions: 1 2 3 4 5 6 7 8 9 10 11 12 13 14 15 16 17 18 19 20 21 22 23 24 25 26 27 28 29 30 31 32 33 34 35 36 37 38 39 40 41 42 43 44 45 46 47 48 49 50
105
ASUS43 KGRB 282311
RWRGRB

NORTH-CENTRAL AND NORTHEAST WISCONSIN REGIONAL WEATHER ROUNDUP
NATIONAL WEATHER SERVICE GREEN BAY WI
600 PM CDT THU JUL 28 2016

WIZ005-009-010>012-018-019-290000-
NORTH CENTRAL WISCONSIN

CITY           SKY/WX    TMP DP  RH WIND       PRES   REMARKS
IRONWOOD       PTSUNNY   66  52  59 NE9       30.06R
MANITOWISH WTR PTSUNNY   68  56  64 NE8       30.06S
ARBOR VITAE    CLOUDY    69  56  63 NE10      30.06R
EAGLE RIVER    MOSUNNY   69  52  54 NE12      30.05R
LAND O LAKES   PTSUNNY   67  52  56 NE8       30.08R
RHINELANDER    PTSUNNY   73  54  51 E9        30.04S
PHILLIPS       MOSUNNY   71  59  65 NE8       30.03R
ANTIGO         CLOUDY    67  63  85 CALM      30.03S
TOMAHAWK       CLOUDY    71  57  63 NE6       30.03S
MERRILL        CLOUDY    68  63  83 CALM      30.02F
$$

WIZ013-073-290000-
NORTHEAST WISCONSIN

CITY           SKY/WX    TMP DP  RH WIND       PRES   REMARKS
IRON MOUNTAIN  CLOUDY    72  51  47 NE8       30.03R
MARINETTE        N/A    N/A N/A N/A MISG        N/A
OCONTO         CLOUDY    66  66 100 CALM      29.99S
$$

WIZ017-030-035>037-045-290000-
CENTRAL WISCONSIN

CITY           SKY/WX    TMP DP  RH WIND       PRES   REMARKS
MEDFORD        CLOUDY    65  65  99 CALM      30.02S
WAUSAU         CLOUDY    66  61  84 CALM      30.00S
MOSINEE        CLOUDY    66  61  82 NE7       30.02R
MARSHFIELD     CLOUDY    64  59  83 E6        30.00S
WISC RAPIDS    CLOUDY    68  57  68 E9        30.00R
STEVENS POINT  HVY RAIN  64  58  81 NE5       30.01R
WAUPACA        MOSUNNY   72  62  72 NE8       29.98F
SHAWANO        CLOUDY    70  61  73 E8        30.01R
CLINTONVILLE   CLOUDY    68  57  68 NE6       30.00S
WAUTOMA        CLOUDY    69  64  84 NE8       29.98R
$$

WIZ038-039-048-051-290000-
FOX VALLEY

CITY           SKY/WX    TMP DP  RH WIND       PRES   REMARKS
NWS GREEN BAY  CLOUDY    68  65  90 NE9       29.98S
APPLETON       CLOUDY    68  57  68 NE14G20   29.97S
OSHKOSH        CLOUDY    70  63  78 NE17      29.96S
FOND DU LAC    CLOUDY    73  62  68 NE14      29.96R
$$

WIZ022-050-052-290000-
EAST CENTRAL WISCONSIN

CITY           SKY/WX    TMP DP  RH WIND       PRES   REMARKS
EPHRAIM        CLOUDY    69  62  77 NE3       29.99R
WASHINGTON ISL NOT AVBL
STURGEON BAY   CLOUDY    69  60  73 NE7       30.00S
MANITOWOC      CLOUDY    66  58  75 VRB7      29.97S
SHEBOYGAN      CLOUDY    68  59  73 NE15      29.96S
$$

LMZ563-521-522-541>543-290000-
LAKESHORE

STATION/POSITION TIME  TEMP    WIND        PRES    VSBY  WAVE
                       AIR SEA DIR/SP/G                  HT/PER
                 (UTC) (F)     (DEG/KT/KT) (MB)    (MI)  (FT/S)
SHEBOYGAN LKSHOR 2300   60      10/ 14/ 15 1014.5F
KEWAUNEE LKSHORE 2200           20/  5/  9 1014.9F
ALGOMA MARINA    2213           50/  6/  9   N/A
NORTHPORT PIER   2200   71      70/  5/  7 1015.2S
N MID LAKE BUOY  2250   71 71   30/  8/ 10 1014.6S         0
SISTER BAY LKSHO 2221   75     120/  3/  7   N/A
CHAMBERS ISLAND  2200   72      30/  6/  8 1015.2F
MENOMINEE LKSHOR 2200           60/  6/  7 1014.5F
$$




USA.gov is the U.S. government's official web portal to all federal, state and local government web resources and services.